[[{"header":{"parameterUnit":"m.s-1","parameterCategory":1,"la1":30.2991,"la2":30.254,"lo1":-89.0895,"lo2":-89.0444,"dy":0.0017,"dx":0.0017,"nx":28,"ny":28,"refTime":"2024-03-15T03:00:00:Z","depth":0,"parameterNumber":2,"parameterNumberName":"U-component_of_WINDS"},"data":[0,0,0,0,0,0,0,0,0,0,0,0,0,0,0,0,0,0,0,0,0,0,0,0,0,0,0,0,0,0,0,0,0,0,0,0,0,0,0,0,0,0,0,0,0,0,0,0,0,0,0,0,0,0,0,0,0,0,-1.576,-1.576,0,-1.5812,-1.5812,-1.5813,-1.5809,-1.5808,-1.5807,-1.5806,-1.5859,-1.5861,-1.5863,0,0,0,0,0,0,0,0,0,0,0,0,0,-1.5656,-1.5658,-1.576,-1.576,-1.5761,-1.5812,-1.5812,-1.5813,-1.5809,-1.5808,-1.5807,-1.5806,-1.5858,-1.5861,-1.5863,0,0,0,0,0,0,0,0,0,0,0,0,0,-1.5704,-1.5659,-1.576,-1.5765,-1.5766,-1.5812,-1.5812,-1.5813,-1.5809,-1.5808,-1.5806,-1.5805,-1.5857,-1.586,-1.5863,-1.5907,0,0,-1.5873,-1.5875,0,0,0,0,0,0,0,0,-1.5701,-1.5708,-1.5764,-1.5765,-1.5766,-1.5802,-1.5795,-1.5845,-1.5809,-1.5793,-1.5806,-1.5805,-1.5841,-1.5845,-1.5858,-1.5909,-1.5912,-1.5874,-1.5875,-1.5877,-1.5878,0,0,0,0,0,0,0,-1.5698,-1.5705,-1.578,-1.5764,-1.5766,-1.5765,-1.577,-1.5804,-1.5823,-1.5794,-1.5794,-1.58,-1.5841,-1.5855,-1.5859,-1.5912,-1.5873,-1.5876,-1.5878,-1.5879,-1.6001,-1.6002,0,0,0,0,0,0,-1.5693,-1.5703,-1.5779,-1.5782,-1.573,-1.5767,-1.5773,-1.5792,-1.5822,-1.5826,-1.5801,-1.58,-1.585,-1.5855,-1.5861,-1.5912,-1.5877,-1.588,-1.5882,-1.6,-1.6001,-1.6003,0,0,0,0,0,0,-1.5691,-1.57,-1.5777,-1.5742,-1.5752,-1.577,-1.5791,-1.5794,-1.5807,-1.5828,-1.5831,-1.5811,-1.5849,-1.5856,-1.5895,-1.5914,-1.5881,-1.5884,-1.5998,-1.6,-1.6002,-1.6016,0,0,0,0,0,0,-1.5688,-1.5699,-1.5716,-1.5743,-1.5754,-1.581,-1.5792,-1.5795,-1.5812,-1.5811,-1.5838,-1.5841,-1.5849,-1.589,-1.5898,-1.5918,-1.5887,-1.5996,-1.5999,-1.6001,-1.6014,-1.6018,-1.6022,0,0,0,0,0,-1.5684,-1.5718,-1.5717,-1.5726,-1.5775,-1.5812,-1.5818,-1.5826,-1.5814,-1.5831,-1.5844,-1.5841,-1.5911,-1.5894,-1.5903,-1.5924,-1.5995,-1.5998,-1.6001,-1.6012,-1.6018,-1.6022,0,0,0,0,0,0,-1.5693,-1.5722,-1.5721,-1.5764,-1.5786,-1.5811,-1.5832,-1.5831,-1.5856,-1.5854,-1.5862,-1.5868,-1.5907,-1.592,-1.5901,-1.5967,-1.5952,-1.5956,-1.5957,-1.5962,-1.5966,-1.5961,-1.5889,0,0,0,0,0,-1.5701,-1.5728,-1.5751,-1.5787,-1.5798,-1.5813,-1.583,-1.5834,-1.5856,-1.5865,-1.5881,-1.5903,-1.5929,-1.5947,-1.5973,-1.6017,-1.6022,-1.6035,-1.6039,-1.6043,-1.6046,-1.6069,-1.6075,-1.6012,-1.6012,-1.6012,0,0,-1.5715,-1.5734,-1.5751,-1.579,-1.5807,-1.5834,-1.5821,-1.5851,-1.5871,-1.5869,-1.5906,-1.5919,-1.5944,-1.5985,-1.6004,-1.5997,-1.6065,-1.6046,-1.6049,-1.605,-1.6072,-1.6078,-1.6083,-1.6014,-1.6014,-1.6014,0,0,-1.5756,-1.5774,-1.5805,-1.5822,-1.5848,-1.5858,-1.5866,-1.5891,-1.5899,-1.5937,-1.5936,-1.596,-1.6007,-1.6024,-1.6039,-1.6086,-1.6083,-1.6095,-1.6115,-1.6137,-1.6142,-1.6146,-1.6161,-1.6167,-1.6098,-1.6098,-1.6098,0,-1.5771,-1.5812,-1.5821,-1.5851,-1.5868,-1.5868,-1.5899,-1.5915,-1.5948,-1.596,-1.5951,-1.6009,-1.6026,-1.607,-1.6082,-1.6095,-1.6102,-1.609,-1.614,-1.6145,-1.6149,-1.6164,-1.6169,-1.61,-1.6099,-1.6099,-1.6099,0,-1.5828,-1.5857,-1.588,-1.5911,-1.5931,-1.5961,-1.5974,-1.5993,-1.5996,-1.6006,-1.6044,-1.6064,-1.6094,-1.6105,-1.6109,-1.615,-1.6145,-1.6139,-1.6123,-1.6156,-1.6169,-1.6175,-1.6101,-1.6101,-1.61,-1.61,0,0,-1.5875,-1.5911,-1.5919,-1.5933,-1.5961,-1.5984,-1.6014,-1.6043,-1.6058,-1.6081,-1.6106,-1.6146,-1.614,-1.6157,-1.6162,-1.6182,-1.6216,-1.6173,-1.6174,-1.6179,-1.6261,-1.6264,-1.6271,-1.6215,-1.6216,-1.6217,-1.6259,0,-1.5917,-1.597,-1.5979,-1.6026,-1.6052,-1.6053,-1.6079,-1.6099,-1.611,-1.6134,-1.6146,-1.6173,-1.6165,-1.6175,-1.6194,-1.6208,-1.6232,-1.6205,-1.6237,-1.6238,-1.6229,-1.6278,-1.6282,-1.632,-1.6264,-1.6265,-1.6266,0,-1.5972,-1.5996,-1.6046,-1.607,-1.6081,-1.6105,-1.6132,-1.6155,-1.6178,-1.6184,-1.6203,-1.6206,-1.6237,-1.6222,-1.6264,-1.6245,-1.6259,-1.6268,-1.6269,-1.6271,-1.6253,-1.6279,-1.6332,-1.6337,-1.6275,-1.6274,-1.6274,0,-1.5999,-1.6044,-1.6079,-1.6091,-1.6121,-1.6137,-1.615,-1.6172,-1.6189,-1.6212,-1.6223,-1.625,-1.6265,-1.6286,-1.6296,-1.6284,-1.6337,-1.6322,-1.6342,-1.6342,-1.6352,-1.6351,-1.6406,-1.6364,-1.6364,-1.6364,-1.6364,0,-1.6043,-1.6073,-1.6091,-1.6112,-1.6145,-1.6155,-1.6188,-1.6201,-1.622,-1.6243,-1.6247,-1.6269,-1.6281,-1.6305,-1.6314,-1.6346,-1.6354,-1.6359,-1.636,-1.6358,-1.6357,-1.6365,-1.6362,-1.6365,-1.6365,-1.6365,-1.6365,0,-1.6078,-1.6091,-1.6129,-1.6154,-1.6161,-1.6184,-1.6206,-1.6226,-1.6237,-1.6267,-1.6275,-1.6292,-1.632,-1.6333,-1.6368,-1.6373,-1.641,-1.6411,-1.6402,-1.6402,-1.6421,-1.6418,-1.6482,-1.649,-1.6445,-1.6445,-1.6446,0,-1.6104,-1.6127,-1.6155,-1.6171,-1.6184,-1.621,-1.6227,-1.6238,-1.6255,-1.6283,-1.63,-1.6328,-1.6351,-1.6396,-1.6412,-1.6438,-1.6438,-1.6459,-1.6442,-1.6438,-1.6436,-1.6434,-1.6436,-1.6461,-1.6461,-1.6462,-1.6462,0,-1.615,-1.6155,-1.6179,-1.6206,-1.6226,-1.6247,-1.6268,-1.6281,-1.6296,-1.6315,-1.6344,-1.6361,-1.6397,-1.6424,-1.6452,-1.6465,-1.6466,-1.6468,-1.6473,-1.6469,-1.6463,-1.6465,-1.6408,-1.6466,-1.6465,-1.6465,-1.6465,-1.6465,-1.618,-1.6199,-1.6222,-1.6248,-1.6265,-1.6285,-1.6305,-1.6319,-1.6343,-1.6372,-1.6378,-1.6408,-1.643,-1.6467,-1.6481,-1.6505,-1.65,-1.6509,-1.651,-1.6512,-1.6512,-1.6461,-1.651,-1.651,-1.651,-1.651,-1.651,0,-1.6223,-1.6238,-1.6262,-1.6291,-1.6312,-1.6312,-1.6335,-1.6352,-1.6379,-1.6399,-1.6422,-1.6454,-1.6481,-1.6499,-1.6526,-1.6542,-1.6542,-1.6548,-1.6546,-1.6549,-1.6516,-1.6507,-1.6547,-1.6547,-1.6547,-1.6547,-1.6547,-1.6547,-1.6248,-1.6281,-1.6289,-1.6331,-1.6345,-1.6374,-1.6387,-1.6405,-1.6421,-1.6458,-1.648,-1.6492,-1.6511,-1.6539,-1.6564,-1.6568,-1.6577,-1.6583,-1.6587,-1.6555,-1.6551,-1.6548,-1.654,-1.6586,-1.6586,-1.6618,-1.6619,-1.6619]},{"header":{"parameterUnit":"m.s-1","parameterCategory":1,"la1":30.2991,"la2":30.254,"lo1":-89.0895,"lo2":-89.0444,"dy":0.0017,"dx":0.0017,"nx":28,"ny":28,"refTime":"2024-03-15T03:00:00:Z","depth":0,"parameterNumber":3,"parameterNumberName":"V-component_of_WINDS"},"data":[0,0,0,0,0,0,0,0,0,0,0,0,0,0,0,0,0,0,0,0,0,0,0,0,0,0,0,0,0,0,0,0,0,0,0,0,0,0,0,0,0,0,0,0,0,0,0,0,0,0,0,0,0,0,0,0,0,0,2.3576,2.3577,0,2.3687,2.3689,2.369,2.3746,2.3747,2.3747,2.3747,2.3861,2.3864,2.3867,0,0,0,0,0,0,0,0,0,0,0,0,0,2.3414,2.3417,2.3576,2.3577,2.3579,2.3687,2.3689,2.369,2.3746,2.3747,2.3747,2.3747,2.386,2.3864,2.3867,0,0,0,0,0,0,0,0,0,0,0,0,0,2.3501,2.3418,2.3576,2.362,2.3625,2.3687,2.3689,2.3691,2.3746,2.3747,2.3747,2.3747,2.3859,2.3863,2.3868,2.3894,0,0,2.3881,2.3883,0,0,0,0,0,0,0,0,2.3496,2.3507,2.3612,2.3617,2.3623,2.3703,2.3674,2.3759,2.3746,2.37,2.3747,2.3747,2.3808,2.3817,2.3838,2.39,2.3905,2.3882,2.3885,2.3887,2.3888,0,0,0,0,0,0,0,2.349,2.3502,2.362,2.3613,2.362,2.3635,2.3647,2.369,2.3753,2.3704,2.3709,2.3721,2.3811,2.3833,2.3841,2.3906,2.3882,2.3886,2.3889,2.389,2.3998,2.3999,0,0,0,0,0,0,2.3476,2.3497,2.3617,2.3623,2.3558,2.3638,2.3652,2.3677,2.3752,2.3764,2.3721,2.3723,2.3826,2.3836,2.3845,2.3883,2.3887,2.3891,2.3893,2.3998,2.3998,2.3999,0,0,0,0,0,0,2.3473,2.3486,2.3612,2.3561,2.3579,2.364,2.3669,2.3679,2.3702,2.3765,2.3777,2.3732,2.3826,2.3839,2.3882,2.3888,2.3893,2.3897,2.3998,2.3998,2.3999,2.3958,0,0,0,0,0,0,2.3468,2.3485,2.3495,2.3561,2.3581,2.3647,2.3669,2.3682,2.3709,2.3713,2.3778,2.3789,2.3827,2.3875,2.3887,2.3894,2.39,2.3998,2.3998,2.3998,2.3959,2.3957,2.3955,0,0,0,0,0,2.3462,2.3479,2.3495,2.3509,2.3595,2.3647,2.3658,2.3702,2.3709,2.3721,2.3762,2.3787,2.3885,2.3879,2.3893,2.3902,2.3998,2.3998,2.3998,2.396,2.3958,2.3955,0,0,0,0,0,0,2.3411,2.3488,2.3507,2.3546,2.3589,2.3656,2.3672,2.3697,2.3739,2.3741,2.3793,2.3808,2.3847,2.3879,2.387,2.3933,2.3944,2.3947,2.3911,2.3908,2.3906,2.3898,2.3904,0,0,0,0,0,2.3404,2.344,2.3505,2.3533,2.3554,2.3609,2.3633,2.3663,2.371,2.3729,2.3773,2.3818,2.386,2.3886,2.3927,2.3964,2.398,2.3977,2.3975,2.3973,2.3975,2.3999,2.3999,2.4,2.4,2.4,0,0,2.3391,2.3437,2.3456,2.3524,2.3561,2.3598,2.3624,2.3661,2.3689,2.3734,2.3779,2.3813,2.3867,2.3908,2.3928,2.3935,2.3979,2.3973,2.3971,2.3975,2.4,2.4,2.4,2.4,2.4,2.4,0,0,2.3385,2.3423,2.3452,2.3489,2.3545,2.3582,2.3589,2.3652,2.3677,2.3722,2.3758,2.3792,2.3862,2.3899,2.3928,2.3938,2.3964,2.395,2.394,2.3963,2.3963,2.3963,2.3968,2.3969,2.3952,2.3952,2.3952,0,2.3362,2.3417,2.3463,2.3499,2.3528,2.3572,2.3602,2.3636,2.3703,2.3723,2.373,2.382,2.3859,2.391,2.3913,2.3934,2.3945,2.3943,2.3959,2.3959,2.396,2.3966,2.3968,2.395,2.3951,2.3951,2.3951,0,2.3386,2.3424,2.3441,2.3505,2.3536,2.3569,2.3621,2.3647,2.3675,2.3711,2.3757,2.3806,2.3859,2.3874,2.39,2.393,2.3933,2.3949,2.3961,2.3958,2.3964,2.3967,2.3948,2.3948,2.3949,2.3949,0,0,2.3351,2.3442,2.3447,2.3478,2.3544,2.3575,2.361,2.3662,2.3684,2.3729,2.3761,2.382,2.3836,2.3868,2.39,2.392,2.3927,2.3934,2.3936,2.3932,2.3965,2.3953,2.3955,2.3945,2.3945,2.3946,2.3961,0,2.3356,2.3421,2.3464,2.3512,2.355,2.3593,2.3624,2.3668,2.3703,2.374,2.3779,2.3821,2.3838,2.3858,2.3879,2.3922,2.3935,2.3921,2.3976,2.3977,2.3962,2.3958,2.3946,2.3957,2.3963,2.3964,2.3964,0,2.337,2.3414,2.3466,2.3531,2.3548,2.3575,2.3628,2.3662,2.3714,2.3739,2.3775,2.3808,2.3848,2.3857,2.3914,2.3904,2.3929,2.3953,2.3955,2.3962,2.3971,2.3967,2.3962,2.3964,2.3968,2.3968,2.3968,0,2.3341,2.3414,2.3455,2.348,2.3555,2.3574,2.3606,2.3658,2.3688,2.3734,2.3754,2.3803,2.3831,2.3869,2.3915,2.3917,2.3968,2.398,2.3991,2.3989,2.4,2.3999,2.4,2.4014,2.4014,2.4014,2.4014,0,2.3342,2.3373,2.3444,2.3469,2.3505,2.3555,2.359,2.3626,2.3672,2.3706,2.3746,2.3777,2.3835,2.3874,2.391,2.3953,2.3965,2.3986,2.3996,2.3984,2.3981,2.4001,2.4002,2.4014,2.4014,2.4014,2.4014,0,2.3316,2.3365,2.3413,2.3481,2.3499,2.3523,2.3581,2.3608,2.3646,2.3689,2.3702,2.3761,2.3809,2.3858,2.3923,2.3947,2.3989,2.4002,2.3972,2.3977,2.3985,2.3984,2.4001,2.4006,2.4015,2.4014,2.4014,0,2.3314,2.3339,2.341,2.3436,2.3468,2.3508,2.3539,2.359,2.362,2.3682,2.3702,2.3753,2.3797,2.3871,2.392,2.397,2.3985,2.3987,2.3993,2.398,2.3987,2.3985,2.3989,2.3986,2.3985,2.3985,2.3985,0,2.3307,2.333,2.3372,2.3424,2.3459,2.3502,2.3546,2.3565,2.3625,2.3657,2.3707,2.3741,2.3807,2.3858,2.3914,2.3948,2.3977,2.3983,2.3988,2.3976,2.3959,2.397,2.3968,2.3982,2.3982,2.3983,2.3983,2.3983,2.3294,2.3319,2.3373,2.342,2.3459,2.35,2.3529,2.3571,2.3613,2.3672,2.3699,2.3749,2.3803,2.3882,2.3915,2.3956,2.3964,2.3971,2.3973,2.3974,2.3972,2.3951,2.3966,2.3966,2.3966,2.3966,2.3967,0,2.3289,2.3327,2.3369,2.3431,2.3468,2.3492,2.3543,2.3572,2.3616,2.3663,2.3706,2.3764,2.3813,2.3867,2.392,2.3943,2.3957,2.3955,2.3954,2.3962,2.3961,2.3952,2.3942,2.3942,2.3942,2.3942,2.3942,2.3942,2.3292,2.3336,2.3366,2.343,2.3468,2.3517,2.3545,2.3583,2.3622,2.3685,2.3726,2.3761,2.3812,2.3869,2.3916,2.3931,2.3949,2.3944,2.3962,2.396,2.3962,2.3964,2.3956,2.3947,2.3947,2.396,2.396,2.396]}]]